Portada
METAR-TAF:

METAR-TAF

Aeropuertos :

Harry P. Williams Memorial Airport

Patterson, Luisiana, Estados Unidos

latitud: 29-43N, longitud: 091-20W, altitud: 3 m

Observación

El informe se hizo hace 10 minutos, a las 01:56 UTC
Viento 4 kt del sur-sureste
Temperatura 21°C
Humedad 94%
Presión 1016 hPa
Cielo nuboso a una altura de 12000 ft

METAR: KPTN 290156Z AUTO 16004KT BKN120 21/20 A2999 RMK AO2 SLP154 T02110200 $

Hora: 21:06 (02:06 UTC)


TAF: falta

Observaciones y pronósticos meteorológicos de más de 4000 aeropuertos (mensajes METAR y TAF).

Los puntos amarillos y rojos representan las estaciones disponibles.

Ponga el ratón en el punto deseado para ver el nombre de la estación.

Haga clic para ver las observaciones y los pronósticos meteorológicos.

Para cambiar el mapa : haga clic en los botones verdes con una cruz de color negro para hacer un zoom, en el botón verde con un guión para alejar o en las flechas verdes para mapas adyacentes.


METAR-TAF: